{"data":{"norad_id":59619,"epoch":"2026-09-21T08:38:14.057088Z","epoch_age_seconds":93803,"freshness":"FRESH","line1":"1 59619U 24080U   26264.35988492  .00000057  00000+0  11597-4 0  9990","line2":"2 59619  43.0038  16.6885 0000998 275.1859  84.8879 15.27577574134414","mean_motion":15.27577574,"eccentricity":9.98e-5,"inclination_deg":43.0038,"raan_deg":16.6885,"arg_perigee_deg":275.1859,"mean_anomaly_deg":84.8879,"bstar":1.1597e-5,"rev_number":13441,"period_min":94.266898422011,"perigee_km":482.37161326865,"apogee_km":483.74110746338,"semimajor_km":6861.193360366,"source":"CELESTRAK","updated_at":"2026-09-22T09:00:49.013763Z"}}